Location: Newark
(40.3500°N, 15.2333°E)
Time: 00:58:21
(UTC+00:00)

NOAA 15 - Pass Details

Date: 28 February 2020
Orbit: 797 x 813 km, 98.7° (Epoch: 08 April)

Event Time Altitude Azimuth Distance (km) Brightness Sun altitude
Rises 18:20:39 0° 191° (S) 3,319 7.9 -18.3°
Reaches altitude 10° 18:23:13 10° 201° (SSW) 2,394 7.2 -18.8°
Maximum altitude 18:27:54 32° 263° (W) 1,377 6.5 -19.6°
Drops below altitude 10° 18:32:38 10° 326° (NW) 2,409 7.6 -20.5°
Sets 18:35:14 0° 336° (NNW) 3,344 8.2 -21.0°
